Location: Calberlah
(52.4230°N, 10.6240°E)
Time: 00:23:30
(UTC+00:00)

Cosmos 2112 Rocket - Pass Details

Date: 19 May 2025
Orbit: 753 x 782 km, 74.0° (Epoch: 21 June)

Event Time Altitude Azimuth Distance (km) Brightness Sun altitude
Exits shadow 23:41:16 31° 183° (S) 1,335 4.7 -17.3°
Maximum altitude 23:43:46 66° 111° (ESE) 839 4.1 -17.3°
Drops below altitude 10° 23:48:57 10° 30° (NNE) 2,306 7.6 -17.2°
Sets 23:51:20 0° 28° (NNE) 3,232 8.6 -17.1°
